Location: Worth Mountain WMA
(34.9569°N, 81.4819°W)
Time: 11:54:22
(UTC-05:00)

Daily predictions for brighter satellites

Satellite Brightness Start Highest point End
(mag) Time Altitude Azimuth Time Altitude Azimuth Time Altitude Azimuth
SL-16 R/B 2.6 18:31:32 10° NNW 18:37:11 71° WSW 18:42:48 10° SSE
SKYMED 2 4.1 18:41:01 10° N 18:45:20 65° WNW 18:49:36 10° SSW
NOAA 12 4.3 18:42:02 10° SSE 18:47:10 52° ENE 18:52:20 10° N
Abrixas rocket 2.3 18:45:36 10° SW 18:48:57 87° NW 18:52:19 10° NE
Cosmos 1741 Rocket 4.2 18:46:01 10° S 18:51:01 48° ESE 18:56:01 10° NNE
FREGAT/IRIS 3.4 18:49:00 10° SE 18:51:45 30° ENE 18:54:32 10° N
Cosmos 2322 Rocket 3.3 18:46:40 10° NNW 18:52:04 49° WSW 18:57:27 10° S
Meteor 1-28 Rocket 3.8 18:48:27 10° N 18:52:14 63° WNW 18:56:00 10° SSW
Tiangong 2 2.5 18:51:41 10° WNW 18:54:33 35° SW 18:57:23 10° SE
Cosmos 1484 Rocket 4.5 18:51:59 10° SSW 18:55:42 39° W 18:59:23 10° NNW
Genesis I 4.2 18:53:06 10° N 18:56:30 27° NE 18:59:51 10° ESE
GPS 2-04 Rocket1 2.9 18:53:53 10° WSW 18:58:06 75° SSE 19:01:59 13° E
Okean 1-7 Rocket 4.4 18:54:46 10° NNE 18:58:44 29° ENE 19:02:38 10° SE
Cosmos 1536 Rocket 3.7 18:54:17 10° N 18:58:47 84° W 19:03:14 10° S
GEOS 3 Rocket 4.2 18:54:13 10° NE 18:59:05 38° ESE 19:03:58 10° S
Cosmos 1633 2.8 18:58:58 10° S 19:02:38 76° W 19:06:20 10° N
Cosmos 1140 Rocket 3.8 18:59:43 10° SSW 19:04:48 70° WNW 19:09:58 10° NNE
METEOR-M 4.1 19:00:04 10° SSE 19:05:24 78° ENE 19:10:45 10° N
Cosmos 614 Rocket 4.0 19:02:56 10° SSW 19:08:00 88° WNW 19:13:06 10° NNE
Hubble Space Telescope 2.4 19:06:55 10° SW 19:10:13 23° SSE 19:12:51 13° ESE
Cosmos 2322 3.7 19:06:18 10° NNW 19:12:02 76° ENE 19:17:43 10° SSE
Cosmos 1570 Rocket 4.3 19:07:06 10° N 19:12:07 45° ENE 19:17:08 10° SE
SJ-6B 2.8 19:08:31 10° SSE 19:12:30 67° ENE 19:16:24 10° N
ATLAS CENTAUR R/B 2.6 19:07:39 10° SSW 19:13:00 32° SE 19:14:33 20° E
Meteor 1-19 Rocket 4.2 19:10:37 10° N 19:16:21 80° E 19:22:08 10° S
ATLAS 2A CENTAUR R/B 3.2 19:15:52 10° SW 19:18:03 20° S 19:22:35 10° SE
Cosmos 1300 Rocket 4.3 19:16:29 10° SSW 19:20:49 58° W 19:25:12 10° N
Helios 1A 4.2 19:23:44 21° ENE 19:23:44 21° ENE 19:26:52 10° NNE
Cosmos 405 Rocket 4.3 19:21:23 10° NNE 19:23:33 19° ENE 19:23:33 19° ENE
CZ-2D R/B 4.2 19:24:00 24° E 19:24:38 26° ENE 19:27:49 10° NNE
USA 229 DEB 4.3 19:18:21 10° NNW 19:25:02 40° NE 19:29:53 18° ESE
USA 229 4.3 19:18:27 10° NNW 19:25:08 40° NE 19:29:56 19° ESE
H-2A R/B 3.2 19:22:45 12° SE 19:25:52 35° ENE 19:29:19 10° N
Spot 2 Rocket 3.7 19:21:07 10° SE 19:25:54 46° ENE 19:30:45 10° N
Cosmos 2297 Rocket 3.5 19:23:32 10° SE 19:26:20 18° ESE 19:26:20 18° ESE
Cosmos 2237 Rocket 3.7 19:24:16 10° NNE 19:27:57 17° NE 19:28:14 17° ENE
Okean 2 4.2 19:24:21 10° NNE 19:28:03 30° ENE 19:29:23 24° ESE
Cosmos 2333 4.5 19:23:23 10° N 19:28:54 46° ENE 19:33:43 13° SE
COSMOS 2428 2.8 19:24:07 10° NNW 19:29:41 54° ENE 19:35:13 10° SE
Cosmos 2237 4.1 19:23:58 10° NNW 19:29:42 70° ENE 19:35:22 10° SSE
DELTA 2 R/B (1) 3.9 19:24:10 10° WNW 19:29:44 66° SSW 19:33:54 18° SE
Helios 1B rocket 3.2 19:27:44 10° NE 19:31:26 31° E 19:35:06 10° SSE
Cosmos 1238 Rocket 3.8 19:31:33 10° NNW 19:34:18 36° W 19:37:11 10° SSW
Meteor 2-4 Rocket 3.5 19:28:52 10° N 19:34:23 81° E 19:39:44 10° S
Resurs 01 Rocket 1.6 19:30:21 10° SSE 19:34:40 58° ENE 19:39:00 10° N
SL-19 R/B 4.3 19:29:33 10° SSE 19:35:07 63° ENE 19:41:03 10° N
Atlas Centaur 2 3.9 19:30:42 10° SSW 19:36:02 21° SSE 19:38:25 18° SE
Meteor 1-23 Rocket 4.2 19:31:40 10° N 19:37:28 69° E 19:43:08 10° SSE
Cosmos 2360 Rocket 3.1 19:36:05 10° NNW 19:41:33 51° WSW 19:46:59 10° S
Cosmos 1536 3.7 19:37:57 10° SSW 19:41:50 50° W 19:45:43 10° N
Cosmos 2208 Rocket 4.0 19:36:25 10° NNW 19:41:53 81° ENE 19:47:15 10° SSE
Cosmos 2219 Rocket 2.7 19:36:55 10° N 19:42:04 37° ENE 19:43:37 31° E
Cosmos 2327 Rocket 4.4 19:36:54 10° S 19:43:05 82° E 19:49:26 10° N
Cosmos 2219 3.7 19:38:18 10° SSW 19:43:59 61° WNW 19:49:41 10° NNE
HJ-1C 3.8 19:42:52 10° S 19:46:13 64° W 19:49:33 10° NNW
Cosmos 2227 Rocket 2.5 19:42:10 10° S 19:47:23 40° ESE 19:49:27 29° ENE
Resurs 1-3 3.5 19:43:13 10° SSE 19:47:33 68° ENE 19:51:56 10° N
Cosmos 2074 Rocket 4.4 19:56:40 10° SSW 20:02:50 63° W 20:09:04 10° N
SL-16 R/B 4.3 19:59:56 10° NNE 20:00:38 12° NNE 20:00:38 12° NNE
Spot 1 4.0 20:03:52 57° NNE 20:03:52 57° NNE 20:07:25 10° N
OTV 4 1.9 20:00:26 10° WSW 20:02:21 36° WSW 20:02:21 36° WSW
Cosmos 1892 Rocket 3.6 20:03:05 10° N 20:06:48 59° NNE 20:06:48 59° NNE
Cosmos 1486 Rocket 4.3 20:03:47 10° S 20:07:57 47° SE 20:07:57 47° SE
ALOS 3.6 20:06:46 10° SSW 20:11:06 39° W 20:15:29 10° NNW
Cosmos 1025 Rocket 4.1 20:09:43 10° NNW 20:13:55 46° W 20:18:07 10° SSW
Cosmos 2333 Rocket 2.1 20:18:22 10° NNW 20:23:54 68° NE 20:23:54 68° NE
Cosmos 1980 4.1 20:21:47 10° NNW 20:26:08 47° NNE 20:26:08 47° NNE
Cosmos 1544 Rocket 4.1 20:23:44 10° SSW 20:27:58 55° W 20:32:14 10° N
Nadezhda 3 Rocket 3.8 20:24:12 10° N 20:30:23 84° E 20:31:35 60° SSE
Cosmos 2341 Rocket 3.9 20:28:16 10° S 20:34:37 84° E 20:41:02 10° N
Cosmos 2154 Rocket 4.3 20:31:07 10° SSW 20:37:25 68° W 20:43:44 10° N
GPS 2-04 Rocket1 4.2 20:33:44 10° W 20:36:30 39° W 20:36:30 39° W
NOSS 0 Rocket 3.8 20:36:02 10° NNW 20:42:06 85° W 20:42:06 85° W
Cosmos 2082 4.0 20:43:06 10° SSW 20:48:28 65° W 20:48:28 65° W
Hubble Space Telescope 3.4 20:47:18 10° WSW 20:48:14 15° WSW 20:48:14 15° WSW
Cosmos 2297 Rocket 3.8 21:05:30 10° SW 21:08:19 28° SW 21:08:19 28° SW
Cosmos 2237 Rocket 3.5 21:06:49 10° NNW 21:10:07 35° NW 21:10:07 35° NW
Atlas Centaur 2 4.3 21:18:46 10° SW 21:21:05 20° SW 21:21:05 20° SW
Cosmos 2219 Rocket 4.0 21:21:16 10° NW 21:25:26 25° W 21:25:26 25° W
Cosmos 2227 Rocket 4.1 21:26:56 10° WSW 21:31:29 25° WNW 21:31:29 25° WNW
CZ-3 Stage 3 4.2 21:11:24 10° WSW 21:32:49 46° SSW 21:32:49 46° SSW
